2018-096L (43729 NORAD) Tracking and Keplerian Element Data

This shows tracking and keplerian element data for the satellite.

Feedback or suggestion? Click here.




ElementValue
Catalog43729
Name2018-096L
Epoch Orbit172
Epoch Day344.50422032
Epoch Year2018
RAAN49.5119
Inclination97.4848
Eccentricity0.0017138
Argument of Perigee288.2205
Mean Anonmoly71.7168
Mean Motion15.26233433
Decay Rate2.635E-05
L11 43729U 18096L 18344.50422032 .00002635 00000-0 10429-3 0 9992
L22 43729 97.4848 49.5119 0017138 288.2205 71.7168 15.26233433 1725

Live tracking and technical data element details for 2018-096L (NORAD 43729). 2018-096L can be tracked NOW for your location showing map with azimuth and elevation plus other details from your city location.

Track the satellite on the map from your city or location and see movement details for azimuth, elevation, latitude, longitude, range, height, and movement on the map or in text.







IsCatalogInMostPopularTable: catalog: 43729, numindb: 5
Update: records affected: 1



GetName: 43729 2018-096L

Hit Count: updated at: Tue, 11 Dec 2018 02:58:59 GMT